Satellite: CXBN-E
Catalog number: 38762
Epoch time:      12298.44743389
Element set:    0042
Inclination:      064.6738 deg
RA of node:       276.4052 deg
Eccentricity:    0.0219308
Arg of perigee:   277.9029 deg
Mean anomaly:     079.7277 deg
Mean motion:   14.79404992 rev/day
Decay rate:      7.454e-05 rev/day^2
Epoch rev:           00598
Checksum:              354

Satellite: OBJECT F
Catalog number: 38763
Epoch time:      12298.44715918
Element set:    0040
Inclination:      064.6724 deg
RA of node:       276.4017 deg
Eccentricity:    0.0219671
Arg of perigee:   278.1644 deg
Mean anomaly:     079.4619 deg
Mean motion:   14.79379828 rev/day
Decay rate:      6.264e-05 rev/day^2
Epoch rev:           00582
Checksum:              341

Satellite: CINEMA-G
Catalog number: 38764
Epoch time:      12298.44683446
Element set:    0040
Inclination:      064.6723 deg
RA of node:       276.3967 deg
Eccentricity:    0.0219406
Arg of perigee:   278.2084 deg
Mean anomaly:     079.4214 deg
Mean motion:   14.79401011 rev/day
Decay rate:      6.525e-05 rev/day^2
Epoch rev:           00598
Checksum:              318

Satellite: CP5
Catalog number: 38765
Epoch time:      12298.47334000
Element set:    0041
Inclination:      064.6726 deg
RA of node:       276.3011 deg
Eccentricity:    0.0218766
Arg of perigee:   277.9598 deg
Mean anomaly:     226.6709 deg
Mean motion:   14.79487188 rev/day
Decay rate:      8.350e-05 rev/day^2
Epoch rev:           00598
Checksum:              345

Satellite: RAIKO
Catalog number: 38852
Epoch time:      12299.87907583
Element set:      19
Inclination:      051.6464 deg
RA of node:       191.9836 deg
Eccentricity:    0.0018826
Arg of perigee:   198.0064 deg
Mean anomaly:     162.0258 deg
Mean motion:   15.52789701 rev/day
Decay rate:     4.7878e-04 rev/day^2
Epoch rev:             323
Checksum:              340

Satellite: FITSAT 1
Catalog number: 38853
Epoch time:      12299.87727956
Element set:      21
Inclination:      051.6485 deg
RA of node:       191.9704 deg
Eccentricity:    0.0014645
Arg of perigee:   207.0984 deg
Mean anomaly:     152.9262 deg
Mean motion:   15.53088154 rev/day
Decay rate:     5.7221e-04 rev/day^2
Epoch rev:             328
Checksum:              319

Satellite: TechEdSat
Catalog number: 38854
Epoch time:      12298.90849351
Element set:    0029
Inclination:      051.6464 deg
RA of node:       196.7461 deg
Eccentricity:    0.0014672
Arg of perigee:   204.5586 deg
Mean anomaly:     155.4735 deg
Mean motion:   15.53553041 rev/day
Decay rate:     7.5543e-04 rev/day^2
Epoch rev:           00314
Checksum:              311

Satellite: F 1
Catalog number: 38855
Epoch time:      12298.97345513
Element set:    0028
Inclination:      051.6468 deg
RA of node:       196.4289 deg
Eccentricity:    0.0013882
Arg of perigee:   205.1695 deg
Mean anomaly:     154.8620 deg
Mean motion:   15.53477922 rev/day
Decay rate:     7.3109e-04 rev/day^2
Epoch rev:           00304
Checksum:              323

Satellite: WeWish
Catalog number: 38856
Epoch time:      12298.96806591
Element set:    0030
Inclination:      051.6491 deg
RA of node:       196.3990 deg
Eccentricity:    0.0019441
Arg of perigee:   195.0921 deg
Mean anomaly:     164.9494 deg
Mean motion:   15.54427406 rev/day
Decay rate:    1.05875e-03 rev/day^2
Epoch rev:           00304
Checksum:              322

/EX


_______________________________________________
Via the Keps mailing list courtesy of AMSAT-NA
http://amsat.org/mailman/listinfo/keps

--- ViaMAIL!/WC v1.60d
 * Origin: Chowdanet (401-724-4410) telnet://chowdanet.com  (1:323/120)